• Join FlightAware (Why Join?)
  • Login
  • US Flag 
05:40PM EST


 

Airport Tracker/Info


-or-


 

Live Flight TrackerFlight Track Log ✈ AAL1593 ✈ 29-Jul-2013 ✈ KMCO - KMIA

Flight Track Log - Related Links

Times and Time Zones

All times are in EDT time to prevent confusion due to time zone crossing. See the AAL1593 flight status page for this flight to view local times or setup timezone preferences in your user account.

Time Position Orientation Groundspeed Altitude Reporting Facility
EDT Latitude Longitude Course Direction KTS MPH feet Rate Location/Type
12:21PM 28.3740 -81.2870 169° South 201 231 2,200  Level FlightAware
12:21PM 28.3620 -81.2830 164° South 219 252 2,700 1,935 Climbing FlightAware
12:21PM 28.3470 -81.2680 139° Southeast 247 284 3,200 2,270 Climbing FlightAware
12:22PM 28.3390 -81.2480 114° Southeast 254 292 4,100 2,833 Climbing FlightAware
12:22PM 28.3310 -81.2280 114° Southeast 266 306 4,900 3,000 Climbing FlightAware
12:22PM 28.3280 -81.2190 111° Southeast 267 307 5,200 3,120 Climbing FlightAware
12:23PM 28.3030 -81.1610 116° Southeast 280 322 7,500 3,000 Climbing FlightAware
12:23PM 28.2910 -81.1300 114° Southeast 282 325 8,700 2,750 Climbing FlightAware
12:23PM 28.2780 -81.0980 115° Southeast 289 333 9,700 2,149 Climbing FlightAware
12:24PM 28.2500 -81.0310 115° Southeast 325 374 11,100 1,823 Climbing FlightAware
12:25PM 28.2110 -80.9840 133° Southeast 352 405 12,100 845 Climbing FlightAware
12:25PM 28.1750 -80.9470 138° Southeast 352 405 12,100 2,451 Level FlightAware
12:26PM 28.1200 -80.8980 142° Southeast 369 425 15,000 3,583 Climbing FlightAware
12:27PM 28.0700 -80.8520 141° Southeast 377 434 16,400 2,143 Climbing FlightAware
12:27PM 28.0920 -80.8720 321° Northwest 378 435 17,500 1,886 Climbing FlightAware
12:28PM 27.9790 -80.7670 141° Southeast 394 453 18,600 2,241 Climbing FlightAware
12:29PM 27.9200 -80.6910 131° Southeast 390 449 20,600 2,475 Climbing FlightAware
12:29PM 27.8910 -80.6360 121° Southeast 386 444 21,900 2,091 Climbing FlightAware
12:30PM 27.8600 -80.5790 122° Southeast 379 436 22,900 904 Climbing FlightAware
12:30PM 27.8300 -80.5220 121° Southeast 379 436 23,000 74 Climbing FlightAware
12:31PM 27.7770 -80.4420 127° Southeast 403 464 23,000  Level FlightAware
12:32PM 27.7320 -80.3960 138° Southeast 399 459 23,000  Level FlightAware
12:32PM 27.6640 -80.3470 147° Southeast 404 465 23,000  Level FlightAware
12:33PM 27.6020 -80.3140 155° Southeast 403 464 23,000  Level FlightAware
12:33PM 27.5370 -80.2970 167° South 398 458 23,000  Level FlightAware
12:34PM 27.4720 -80.2820 168° South 407 468 23,000  Level FlightAware
12:35PM 27.4030 -80.2650 168° South 411 473 23,000  Level FlightAware
12:35PM 27.3340 -80.2490 168° South 411 473 23,000  Level FlightAware
12:36PM 27.2650 -80.2320 168° South 410 472 23,000  Level FlightAware
12:37PM 27.1960 -80.2160 168° South 411 473 23,000 -171 Level FlightAware
12:37PM 27.1360 -80.2010 167° South 398 458 22,800 -783 Descending FlightAware
12:38PM 27.0690 -80.1850 168° South 398 458 22,100 -1,114 Descending FlightAware
12:38PM 27.0080 -80.1710 168° South 382 440 21,500 -1,183 Descending FlightAware
12:39PM 26.9430 -80.1550 168° South 377 434 20,700 -1,268 Descending FlightAware
12:39PM 26.8840 -80.1410 168° South 381 438 20,000 -1,254 Descending FlightAware
12:40PM 26.8270 -80.1270 168° South 376 433 19,300 -1,247 Descending FlightAware
12:41PM 26.7530 -80.1100 168° South 361 415 18,400 -1,520 Descending FlightAware
12:41PM 26.6990 -80.0970 168° South 363 418 17,400 -1,826 Descending FlightAware
12:42PM 26.6390 -80.0830 168° South 348 400 16,300 -1,703 Descending FlightAware
12:42PM 26.5800 -80.0690 168° South 347 399 15,300 -1,865 Descending FlightAware
12:43PM 26.5240 -80.0550 167° South 331 381 14,000 -1,870 Descending FlightAware
12:44PM 26.4660 -80.0420 169° South 332 382 12,900 -960 Descending FlightAware
12:44PM 26.4100 -80.0310 170° South 324 373 12,800 -338 Descending FlightAware
12:45PM 26.3520 -80.0260 176° South 322 371 12,500 -971 Descending FlightAware
12:45PM 26.3050 -80.0270 181° South 321 369 11,700 -1,629 Descending FlightAware
12:46PM 26.2470 -80.0290 182° South 325 374 10,600 -1,729 Descending FlightAware
12:46PM 26.2130 -80.0300 182° South 323 372 10,000 -1,143 Descending FlightAware
12:47PM 26.1830 -80.0310 182° South 315 362 9,800 -364 Descending FlightAware
12:47PM 26.1660 -80.0320 183° South 302 348 9,800 -353 Level FlightAware
12:47PM 26.1360 -80.0370 189° South 288 331 9,600 -878 Descending FlightAware
12:48PM 26.1110 -80.0430 192° South 284 327 9,200 -1,385 Descending FlightAware
12:48PM 26.0850 -80.0500 194° South 284 327 8,700 -1,467 Descending FlightAware
12:48PM 26.0540 -80.0580 193° South 284 327 8,100 -1,174 Descending FlightAware
12:49PM 26.0290 -80.0650 194° South 284 327 7,800 -439 Descending FlightAware
12:49PM 26.0000 -80.0730 194° South 285 328 7,800  Level FlightAware
12:49PM 25.9750 -80.0820 198° South 284 327 7,800  Level FlightAware
12:50PM 25.9650 -80.0870 204° Southwest 284 327 7,800  Level FlightAware
12:50PM 25.9460 -80.1100 227° Southwest 287 330 7,800  Level FlightAware
12:50PM 25.9300 -80.1370 237° Southwest 288 331 7,800  Level FlightAware
12:51PM 25.9170 -80.1630 241° Southwest 288 331 7,800  Level FlightAware
12:51PM 25.9100 -80.1830 249° West 288 331 7,800  Level FlightAware
12:51PM 25.9080 -80.2000 263° West 287 330 7,800 -857 Level FlightAware
12:51PM 25.9100 -80.2320 274° West 285 328 7,300 -1,610 Descending FlightAware
12:52PM 25.9120 -80.2580 275° West 281 323 6,700 -2,167 Descending FlightAware
12:52PM 25.9140 -80.2840 275° West 280 322 6,000 -2,571 Descending FlightAware
12:52PM 25.9160 -80.3090 275° West 278 320 5,200 -2,545 Descending FlightAware
12:53PM 25.9170 -80.3330 273° West 277 319 4,600 -2,229 Descending FlightAware
12:53PM 25.9190 -80.3570 275° West 275 316 3,900 -2,063 Descending FlightAware
12:53PM 25.9200 -80.3770 273° West 270 311 3,500 -1,953 Descending FlightAware
12:54PM 25.9040 -80.4090 241° Southwest 247 284 2,500 -1,800 Descending FlightAware
12:54PM 25.8940 -80.4160 212° Southwest 250 288 2,300 -600 Descending FlightAware
12:54PM 25.8830 -80.4190 194° South 231 266 2,300 -300 Level FlightAware
12:54PM 25.8740 -80.4180 174° South 231 266 2,200 -800 Descending FlightAware
12:54PM 25.8660 -80.4160 167° South 226 260 2,100 -600 Descending FlightAware
12:54PM 25.8630 -80.4150 163° South 223 257 2,100 -800 Level FlightAware
12:54PM 25.8540 -80.4060 138° Southeast 210 242 1,900 -600 Descending FlightAware
12:55PM 25.8450 -80.3880 119° Southeast 202 232 1,800 -600 Descending FlightAware
12:55PM 25.8370 -80.3700 116° Southeast 184 212 1,500 -933 Descending FlightAware
12:56PM 25.8260 -80.3500 121° Southeast 167 192 1,100 -1,000 Descending FlightAware
12:56PM 25.8150 -80.3280 119° Southeast 148 170 600 -933 Descending FlightAware
12:56PM 25.8100 -80.3180 119° Southeast 142 163 400 -732 Descending FlightAware
12:57PM 25.8020 -80.3030 121° Southeast 133 153 100 -720 Descending FlightAware
12:57PM 25.7970 -80.2920 117° Southeast 129 148 -316 Descending FlightAware
12:57PM 25.7930 -80.2850 122° Southeast 115 132  Level FlightAware